TimeCDT,TemperatureF,Dew PointF,Humidity,Sea Level PressureIn,VisibilityMPH,Wind Direction,Wind SpeedMPH,Gust SpeedMPH,PrecipitationIn,Events,Conditions,WindDirDegrees,DateUTC
12:15 AM,46.4,46.4,100,30.12,2.5,North,12.7,-,0.05,,Overcast,350,2012-10-06 05:15:00
12:35 AM,46.4,46.4,100,30.13,7.0,North,17.3,-,0.07,,Overcast,360,2012-10-06 05:35:00
12:55 AM,44.6,44.6,100,30.13,3.0,North,11.5,21.9,0.10,,Overcast,360,2012-10-06 05:55:00
1:15 AM,44.6,44.6,100,30.13,4.0,North,10.4,-,0.02,,Overcast,10,2012-10-06 06:15:00
1:35 AM,44.6,44.6,100,30.12,3.0,NNE,11.5,-,0.12,,Overcast,20,2012-10-06 06:35:00
1:55 AM,44.6,44.6,100,30.13,3.0,North,15.0,-,0.12,,Overcast,10,2012-10-06 06:55:00
2:15 AM,44.6,44.6,100,30.13,8.0,NNE,11.5,16.1,0.00,,Overcast,20,2012-10-06 07:15:00
2:35 AM,44.6,44.6,100,30.13,9.0,NNE,15.0,20.7,0.00,,Overcast,20,2012-10-06 07:35:00
2:55 AM,44.6,44.6,100,30.14,10.0,NNE,11.5,18.4,0.00,,Overcast,20,2012-10-06 07:55:00
3:15 AM,44.6,44.6,100,30.14,10.0,NNE,10.4,16.1,0.00,,Overcast,20,2012-10-06 08:15:00
3:35 AM,44.6,44.6,100,30.13,9.0,North,11.5,-,0.00,,Overcast,10,2012-10-06 08:35:00
3:55 AM,44.6,44.6,100,30.14,10.0,North,13.8,-,N/A,,Overcast,10,2012-10-06 08:55:00
4:15 AM,44.6,44.6,100,30.14,9.0,North,11.5,19.6,0.00,,Overcast,10,2012-10-06 09:15:00
4:35 AM,44.6,44.6,100,30.14,9.0,NNE,12.7,21.9,0.00,,Overcast,20,2012-10-06 09:35:00
4:55 AM,44.6,44.6,100,30.15,8.0,North,8.1,-,0.00,,Overcast,10,2012-10-06 09:55:00
5:15 AM,44.6,44.6,100,30.16,10.0,North,16.1,19.6,0.00,,Overcast,10,2012-10-06 10:15:00
5:35 AM,42.8,42.8,100,30.16,10.0,North,15.0,21.9,0.00,,Overcast,10,2012-10-06 10:35:00
5:55 AM,42.8,42.8,100,30.17,10.0,NNE,13.8,-,0.00,,Overcast,20,2012-10-06 10:55:00
6:15 AM,42.8,42.8,100,30.18,9.0,NNE,13.8,-,0.00,,Overcast,20,2012-10-06 11:15:00
6:35 AM,42.8,42.8,100,30.18,10.0,NNE,11.5,-,0.00,,Overcast,20,2012-10-06 11:35:00
6:50 AM,42.8,42.8,100,30.19,9.0,NNE,15.0,21.9,N/A,,Overcast,20,2012-10-06 11:50:00
7:45 AM,42.8,42.8,100,30.20,10.0,NNE,16.1,21.9,N/A,,Mostly Cloudy,20,2012-10-06 12:45:00
8:55 AM,44.6,42.8,93,30.20,10.0,NNE,12.7,17.3,N/A,,Mostly Cloudy,30,2012-10-06 13:55:00
9:50 AM,48.2,39.2,71,30.21,10.0,NE,12.7,20.7,N/A,,Scattered Clouds,40,2012-10-06 14:50:00
10:45 AM,51.8,37.4,58,30.19,10.0,NE,15.0,23.0,N/A,,Mostly Cloudy,50,2012-10-06 15:45:00
12:50 PM,55.4,39.2,54,30.17,10.0,North,13.8,-,N/A,,Mostly Cloudy,360,2012-10-06 17:50:00
1:50 PM,53.6,39.2,58,30.17,7.0,North,11.5,-,N/A,Rain,Rain,360,2012-10-06 18:50:00
3:55 PM,48.2,46.4,93,30.13,8.0,North,8.1,-,N/A,,Overcast,350,2012-10-06 20:55:00
4:50 PM,48.2,46.4,93,30.16,4.0,WNW,5.8,-,N/A,Rain,Rain,300,2012-10-06 21:50:00
5:50 PM,46.4,46.4,100,30.14,10.0,North,8.1,-,N/A,,Overcast,360,2012-10-06 22:50:00
6:50 PM,46.4,46.4,100,30.16,10.0,NNE,8.1,-,N/A,,Overcast,20,2012-10-06 23:50:00
7:50 PM,46.4,46.4,100,30.18,10.0,NNE,6.9,-,N/A,,Overcast,20,2012-10-07 00:50:00
8:55 PM,44.6,44.6,100,30.18,10.0,NNE,9.2,-,0.02,,Overcast,20,2012-10-07 01:55:00
9:15 PM,44.6,44.6,100,30.18,8.0,NNE,9.2,-,0.00,,Overcast,20,2012-10-07 02:15:00
9:35 PM,42.8,42.8,100,30.19,5.0,NNE,9.2,-,0.01,,Overcast,20,2012-10-07 02:35:00
9:55 PM,44.6,44.6,100,30.18,8.0,NNE,9.2,-,0.01,,Overcast,20,2012-10-07 02:55:00
10:15 PM,44.6,44.6,100,30.20,8.0,North,8.1,-,0.01,,Overcast,10,2012-10-07 03:15:00
10:35 PM,44.6,44.6,100,30.20,3.0,NNE,5.8,-,0.06,,Overcast,20,2012-10-07 03:35:00
10:55 PM,44.6,44.6,100,30.21,5.0,NNW,4.6,-,0.07,,Overcast,340,2012-10-07 03:55:00
11:15 PM,44.6,44.6,100,30.20,10.0,NNE,6.9,-,0.00,,Overcast,20,2012-10-07 04:15:00
11:35 PM,44.6,44.6,100,30.21,5.0,North,3.5,-,0.00,,Overcast,360,2012-10-07 04:35:00
11:55 PM,44.6,44.6,100,30.19,5.0,NNE,3.5,-,0.02,,Overcast,20,2012-10-07 04:55:00